| time (UTC) | temp F | wind direction | speed MPH | gust MPH | rain 1hr in | rain 24hr in | rain mn in | humidity % | barometer mb |
| 20260504081815 | 54 | 22 | 7.0 | 7.0 | 0.00 | 0.00 | 0.00 | 93 | 1018.0 |
| 20260504080815 | 54 | 22 | 7.0 | 7.0 | 0.00 | 0.00 | 0.00 | 93 | 1018.0 |
| 20260504045803 | 54 | 22 | 7.0 | 7.0 | 0.00 | 0.00 | 0.00 | 94 | 1019.0 |
| 20260504044802 | 54 | 22 | 7.0 | 7.0 | 0.00 | 0.00 | 0.00 | 94 | 1019.0 |
| 20260504043802 | 56 | 22 | 7.0 | 8.0 | 0.00 | 0.00 | 0.00 | 94 | 1019.0 |
| 20260504042801 | 56 | 22 | 7.0 | 8.0 | 0.00 | 0.00 | 0.00 | 94 | 1019.0 |
| 20260504041801 | 56 | 22 | 7.0 | 8.0 | 0.00 | 0.00 | 0.00 | 93 | 1019.0 |
| 20260504040800 | 56 | 22 | 7.0 | 9.0 | 0.00 | 0.00 | 0.00 | 93 | 1019.0 |
| 20260504035759 | 56 | 22 | 7.0 | 8.0 | 0.00 | 0.00 | 0.00 | 94 | 1019.0 |
| 20260504034759 | 56 | 22 | 7.0 | 9.0 | 0.00 | 0.00 | 0.00 | 94 | 1019.0 |
| 20260504033758 | 56 | 36 | 5.0 | 5.0 | 0.00 | 0.00 | 0.00 | 93 | 1019.0 |
| 20260504032757 | 55 | 36 | 5.0 | 5.0 | 0.00 | 0.00 | 0.00 | 94 | 1018.0 |
| 20260504031757 | 55 | 36 | 5.0 | 5.0 | 0.00 | 0.00 | 0.00 | 93 | 1018.0 |
| 20260504030756 | 55 | 36 | 5.0 | 5.0 | 0.00 | 0.00 | 0.00 | 93 | 1018.0 |
| 20260504025756 | 55 | 36 | 5.0 | 5.0 | 0.00 | 0.00 | 0.00 | 93 | 1018.0 |
| 20260504024755 | 55 | 36 | 5.0 | 5.0 | 0.00 | 0.00 | 0.00 | 93 | 1018.0 |
| 20260504023754 | 55 | 36 | 5.0 | 5.0 | 0.00 | 0.00 | 0.00 | 93 | 1018.0 |
| 20260504022754 | 55 | 36 | 5.0 | 5.0 | 0.00 | 0.00 | 0.00 | 94 | 1018.0 |
| 20260504021753 | 55 | 36 | 5.0 | 5.0 | 0.00 | 0.00 | 0.00 | 94 | 1018.0 |
| 20260504020752 | 55 | 36 | 5.0 | 5.0 | 0.00 | 0.00 | 0.00 | 94 | 1018.0 |
| 20260504015752 | 55 | 36 | 5.0 | 5.0 | 0.00 | 0.00 | 0.00 | 94 | 1018.0 |
| 20260504014751 | 55 | 36 | 5.0 | 5.0 | 0.00 | 0.00 | 0.00 | 93 | 1018.0 |
| 20260504013750 | 55 | 36 | 5.0 | 5.0 | 0.00 | 0.00 | 0.00 | 93 | 1018.0 |
| 20260504012750 | 55 | 36 | 5.0 | 5.0 | 0.00 | 0.00 | 0.00 | 93 | 1017.0 |
| 20260504011749 | 55 | 36 | 5.0 | 5.0 | 0.00 | 0.00 | 0.00 | 93 | 1017.0 |
| 20260504010748 | 60 | 360 | 8.0 | 0.0 | 0.00 | 0.00 | 0.00 | 90 | 1017.0 |
| 20260504005748 | 60 | 360 | 8.0 | 0.0 | 0.00 | 0.00 | 0.00 | 90 | 1017.0 |
| 20260504004747 | 60 | 360 | 8.0 | 0.0 | 0.00 | 0.00 | 0.00 | 90 | 1017.0 |
| 20260504003747 | 60 | 360 | 8.0 | 0.0 | 0.00 | 0.00 | 0.00 | 90 | 1017.0 |
| 20260504002746 | 60 | 360 | 8.0 | 0.0 | 0.00 | 0.00 | 0.00 | 91 | 1016.0 |
| 20260504001745 | 60 | 360 | 8.0 | 0.0 | 0.00 | 0.00 | 0.00 | 91 | 1016.0 |
| 20260504000745 | 60 | 360 | 8.0 | 0.0 | 0.00 | 0.00 | 0.00 | 93 | 1016.0 |
| 20260503235744 | 60 | 360 | 8.0 | 0.0 | 0.00 | 0.00 | 0.00 | 92 | 1016.0 |
| 20260503234743 | 61 | 360 | 8.0 | 0.0 | 0.00 | 0.00 | 0.00 | 93 | 1015.0 |
| 20260503233743 | 61 | 360 | 8.0 | 0.0 | 0.00 | 0.00 | 0.00 | 93 | 1015.0 |
| 20260503232742 | 61 | 360 | 8.0 | 0.0 | 0.01 | 0.00 | 0.00 | 93 | 1015.0 |
| 20260503231741 | 61 | 360 | 8.0 | 0.0 | 0.00 | 0.00 | 0.00 | 93 | 1015.0 |
| 20260503230741 | 61 | 360 | 8.0 | 0.0 | 0.00 | 0.00 | 0.00 | 93 | 1015.0 |
| 20260503225740 | 61 | 360 | 8.0 | 0.0 | 0.06 | 0.00 | 0.00 | 93 | 1015.0 |
| 20260503224740 | 61 | 360 | 8.0 | 0.0 | 0.03 | 0.00 | 0.00 | 92 | 1015.0 |
| 20260503223739 | 61 | 360 | 8.0 | 0.0 | 0.03 | 0.00 | 0.00 | 92 | 1015.0 |
| 20260503222739 | 61 | 360 | 8.0 | 0.0 | 0.01 | 0.00 | 0.00 | 92 | 1015.0 |
| 20260503221738 | 62 | 360 | 8.0 | 0.0 | 0.01 | 0.00 | 0.00 | 91 | 1015.0 |
| 20260503220738 | 63 | 360 | 8.0 | 0.0 | 0.01 | 0.00 | 0.00 | 90 | 1015.0 |
| 20260503215737 | 64 | 360 | 8.0 | 0.0 | 0.00 | 0.00 | 0.00 | 88 | 1015.0 |
| 20260503214736 | 65 | 360 | 8.0 | 0.0 | 0.01 | 0.00 | 0.00 | 83 | 1015.0 |
| 20260503213736 | 67 | 360 | 9.0 | 0.0 | 0.00 | 0.00 | 0.00 | 74 | 1015.0 |
| 20260503212735 | 64 | 145 | 1.0 | 4.0 | 0.02 | 0.00 | 0.00 | 83 | 1015.0 |
| 20260503211735 | 64 | 145 | 1.0 | 4.0 | 0.00 | 0.00 | 0.00 | 84 | 1015.0 |
| 20260503210734 | 64 | 145 | 1.0 | 4.0 | 0.02 | 0.00 | 0.00 | 85 | 1015.0 |
| 20260503205734 | 65 | 145 | 1.0 | 4.0 | 0.00 | 0.00 | 0.00 | 81 | 1015.0 |
| 20260503204733 | 65 | 145 | 1.0 | 4.0 | 0.00 | 0.00 | 0.00 | 79 | 1015.0 |
| 20260503203733 | 66 | 145 | 2.0 | 4.0 | 0.00 | 0.00 | 0.00 | 75 | 1016.0 |
| 20260503202732 | 66 | 145 | 2.0 | 4.0 | 0.00 | 0.00 | 0.00 | 75 | 1016.0 |
| 20260503201732 | 73 | 140 | 11.0 | 0.0 | 0.00 | 0.00 | 0.00 | 53 | 1016.0 |
| 20260503200731 | 73 | 140 | 11.0 | 0.0 | 0.00 | 0.00 | 0.00 | 53 | 1016.0 |
| 20260503195731 | 71 | 140 | 11.0 | 0.0 | 0.00 | 0.00 | 0.00 | 55 | 1016.0 |
| 20260503194730 | 71 | 140 | 11.0 | 0.0 | 0.00 | 0.00 | 0.00 | 55 | 1016.0 |
| 20260503193729 | 71 | 140 | 11.0 | 0.0 | 0.00 | 0.00 | 0.00 | 54 | 1016.0 |
| 20260503192729 | 71 | 140 | 11.0 | 0.0 | 0.00 | 0.00 | 0.00 | 53 | 1016.0 |
| 20260503191728 | 71 | 140 | 11.0 | 0.0 | 0.01 | 0.00 | 0.00 | 52 | 1016.0 |
| 20260503190728 | 71 | 140 | 11.0 | 0.0 | 0.00 | 0.00 | 0.00 | 51 | 1016.0 |
| 20260503185726 | 71 | 140 | 11.0 | 0.0 | 0.01 | 0.00 | 0.00 | 50 | 1016.0 |
| 20260503184726 | 71 | 140 | 11.0 | 0.0 | 0.00 | 0.00 | 0.00 | 53 | 1016.0 |
| 20260503183725 | 70 | 140 | 11.0 | 0.0 | 0.01 | 0.00 | 0.00 | 57 | 1016.0 |
| 20260503182724 | 69 | 140 | 11.0 | 0.0 | 0.00 | 0.00 | 0.00 | 68 | 1016.0 |
| 20260503181724 | 69 | 140 | 11.0 | 0.0 | 0.00 | 0.00 | 0.00 | 69 | 1016.0 |
| 20260503180723 | 70 | 140 | 11.0 | 0.0 | 0.00 | 0.00 | 0.00 | 62 | 1016.0 |
| 20260503175723 | 69 | 136 | 1.0 | 3.0 | 0.00 | 0.00 | 0.00 | 64 | 1016.0 |
| 20260503174722 | 68 | 136 | 1.0 | 3.0 | 0.00 | 0.00 | 0.00 | 72 | 1017.0 |
| 20260503173722 | 68 | 136 | 1.0 | 3.0 | 0.00 | 0.00 | 0.00 | 70 | 1017.0 |
| 20260503172721 | 68 | 136 | 1.0 | 3.0 | 0.00 | 0.00 | 0.00 | 70 | 1017.0 |
| 20260503171720 | 68 | 136 | 1.0 | 3.0 | 0.00 | 0.00 | 0.00 | 69 | 1017.0 |
| 20260503170720 | 68 | 136 | 1.0 | 3.0 | 0.00 | 0.00 | 0.00 | 67 | 1017.0 |
| 20260503150710 | 60 | 136 | 1.0 | 3.0 | 0.00 | 0.00 | 0.00 | 84 | 1017.0 |
| 20260503130703 | 53 | 140 | 21.0 | 0.0 | 0.00 | 0.00 | 0.00 | 96 | 1018.0 |
| 20260503110655 | 55 | 140 | 21.0 | 0.0 | 0.00 | 0.00 | 0.00 | 93 | 1018.0 |